RH
18 17 17 19 25 30 29 27 27 27 29 29 30 32 35 36 34 32 33 34 34 33 33 35 35 35 35 35 36 37 41 44 46 49 51 55 56 58 64 69 73 74 75 81 79 70 60 39 24 24 24 25 26 25 26 28 31 34 33 29 22 16 13 10 9 8 8 9 9 9 10 10 10 8 7 8 8 9 9 10 11 12 12 11 10 9
14 13 17 22 25 28 30 29 28 28 29 29 28 30 30 31 30 30 31 32 34 34 36 37 35 33 33 35 37 38 42 45 47 50 52 55 56 58 64 67 71 75 78 84 78 68 67 50 28 24 25 26 26 26 28 31 34 37 36 32 24 17 13 10 8 9 9 9 10 11 11 11 10 8 7 8 9 10 11 12 12 12 13 12 12 10
10 14 20 23 24 27 28 27 28 29 28 27 28 30 29 28 28 29 30 31 33 34 36 36 32 29 31 34 37 39 42 44 47 49 52 55 57 60 64 67 72 77 81 83 75 70 76 64 37 25 26 27 27 27 30 34 36 40 39 34 26 17 11 9 8 9 10 10 11 12 12 11 9 8 8 9 9 11 12 13 14 14 14 13 12 12
13 21 23 24 28 29 26 26 29 28 25 25 27 28 28 28 29 30 31 32 34 34 35 35 30 29 33 35 36 40 41 43 47 49 52 55 58 62 65 68 73 78 82 80 74 75 85 79 52 30 26 27 28 30 33 35 38 42 42 37 28 17 10 9 9 9 10 11 12 13 12 10 9 8 9 10 11 11 13 14 15 15 15 15 14 13
18 23 22 24 27 26 23 23 25 24 23 25 28 28 29 29 30 31 32 32 34 35 36 36 31 28 32 35 35 39 41 43 47 49 53 56 59 64 66 69 74 78 80 77 75 82 89 91 70 38 27 28 29 33 35 37 41 44 46 41 29 17 10 9 9 9 10 11 12 13 12 10 9 9 9 10 11 12 13 14 15 16 16 16 16 14
19 21 21 22 22 20 18 16 19 22 23 26 30 31 32 31 32 34 33 33 33 35 38 42 41 33 28 33 36 37 40 44 47 50 54 57 62 66 66 69 74 78 80 77 80 88 91 95 84 50 30 29 31 34 36 39 44 48 50 45 31 17 10 9 9 9 11 11 13 13 12 10 9 9 10 11 11 12 13 15 16 17 18 17 17 16
19 21 20 20 18 16 13 12 17 21 21 25 29 31 33 33 33 33 33 34 34 36 39 44 49 43 30 29 35 36 38 43 48 51 54 58 63 65 64 68 74 79 80 80 86 94 93 96 92 63 34 29 33 36 38 42 47 50 53 49 33 17 11 10 9 10 11 12 13 14 12 10 9 10 11 12 12 13 15 17 18 18 19 19 18 17
21 22 20 19 16 12 12 14 17 19 21 25 26 28 29 28 30 30 32 34 34 36 40 42 47 50 40 30 34 37 38 43 48 51 55 59 64 64 62 67 75 79 79 83 93 96 94 96 97 75 40 30 35 37 40 43 46 51 55 52 34 17 12 10 9 10 12 12 13 14 13 10 9 11 12 13 13 15 16 18 19 20 20 20 20 19
20 19 18 18 15 13 15 16 17 18 21 22 24 25 23 25 28 29 31 33 33 36 42 45 48 54 46 29 34 40 37 41 48 51 56 61 64 64 62 65 74 80 80 84 94 97 94 95 100 85 47 31 36 39 41 43 47 54 58 55 36 17 12 11 10 11 12 14 14 14 13 10 10 11 12 13 14 16 18 20 20 21 22 21 22 20
20 19 19 18 17 19 19 18 18 17 19 21 23 24 23 25 25 28 32 31 34 38 42 47 50 58 50 27 31 41 36 41 48 52 59 62 62 61 60 64 73 81 82 85 91 93 94 96 101 92 55 32 37 39 41 44 48 56 61 57 39 20 14 11 10 12 13 14 14 14 13 10 11 11 12 13 15 17 19 21 22 22 23 23 23 22
22 22 21 21 20 22 22 21 19 18 20 20 19 22 25 27 27 32 32 29 40 48 45 46 47 58 58 32 28 37 35 42 50 54 61 60 58 57 58 65 76 82 83 88 90 90 95 97 101 96 61 34 37 40 41 44 49 57 62 58 41 23 15 11 11 12 13 14 14 15 13 10 11 11 13 13 14 17 19 21 23 23 24 25 24 23
22 22 23 24 24 23 23 23 22 21 24 21 19 20 22 26 26 28 32 36 49 52 43 44 44 52 57 36 27 34 36 44 52 56 60 57 55 54 56 66 76 82 84 89 91 89 96 98 100 98 63 34 37 40 40 44 50 58 64 60 43 25 17 13 12 13 13 14 15 15 13 11 11 12 12 14 14 17 19 22 24 25 25 26 26 25
23 22 23 24 24 24 24 24 24 24 25 23 22 20 23 37 38 39 53 56 50 44 37 41 45 46 44 30 25 31 35 44 53 56 58 57 55 51 51 61 72 82 87 89 89 90 98 99 100 97 62 33 36 40 40 45 52 60 65 62 45 28 20 15 13 14 14 15 15 15 14 11 11 12 12 14 16 18 21 24 26 26 26 27 27 26
23 23 24 25 24 25 25 25 26 28 27 25 28 28 33 54 60 64 77 66 45 39 34 37 47 44 33 25 26 30 33 43 52 55 57 57 57 51 47 57 72 83 90 90 87 90 97 99 102 93 56 32 36 39 41 47 53 61 66 63 47 30 22 17 14 14 14 15 16 15 14 12 11 12 12 14 17 19 23 26 28 29 28 28 28 27
24 23 22 25 26 26 26 27 27 29 30 29 32 34 34 46 51 56 67 58 45 48 39 34 43 40 30 26 27 31 36 44 50 53 56 58 59 53 46 57 74 85 93 91 86 90 96 99 102 83 46 31 37 39 42 48 54 61 66 63 48 32 24 19 16 15 14 15 16 16 14 12 12 12 13 15 18 21 25 28 30 31 30 30 29 27
24 23 21 24 27 27 27 28 28 29 32 31 32 36 37 41 42 45 54 50 51 66 59 40 34 30 28 28 28 34 38 42 49 53 55 58 62 57 50 60 74 86 96 92 85 91 96 101 98 69 37 32 38 39 43 47 53 61 68 64 50 35 27 21 17 15 14 15 16 16 15 12 12 12 13 15 18 21 26 30 32 32 31 31 30 28
21 23 20 20 24 27 27 28 30 30 32 32 32 35 39 45 46 47 52 50 57 73 59 36 30 27 27 29 28 34 39 41 48 52 53 57 63 60 55 63 76 89 98 90 84 90 97 101 88 53 32 34 38 39 43 46 52 61 68 65 51 37 28 24 19 16 15 16 16 17 15 13 12 12 13 15 17 20 26 32 33 34 33 32 31 29
18 21 19 16 17 22 26 29 30 30 33 34 33 34 37 44 48 50 57 61 71 82 60 36 37 34 31 32 28 31 38 40 45 49 51 56 62 62 60 67 79 90 95 87 81 89 97 96 73 41 32 36 37 40 42 45 52 61 69 66 52 40 32 28 22 17 16 16 17 17 15 13 12 12 14 15 17 20 25 31 34 34 34 33 32 30
18 20 18 14 13 17 23 28 29 29 32 34 34 35 35 40 46 49 57 59 66 82 70 46 42 36 29 31 28 30 36 39 44 47 47 52 58 62 63 69 80 88 89 82 78 89 98 87 58 35 33 37 38 41 42 45 53 62 69 66 54 44 37 32 24 17 16 16 17 18 15 13 12 12 14 15 17 19 23 29 34 35 36 35 33 32
16 20 19 14 12 15 18 24 28 28 31 33 35 37 34 37 43 46 52 53 56 78 79 61 52 37 25 28 29 31 34 38 44 44 42 47 53 60 67 73 82 86 82 74 74 89 95 76 48 34 34 37 39 41 42 45 53 61 67 64 55 47 40 35 26 19 18 17 18 19 16 13 12 12 14 15 16 18 21 27 33 36 37 36 35 34
13 17 19 13 11 14 15 19 24 25 30 33 33 36 34 35 41 43 48 49 53 76 86 81 70 38 19 29 31 28 32 38 44 44 39 41 46 57 69 76 85 87 78 70 74 90 91 67 43 34 34 37 39 41 42 46 53 59 62 60 54 49 44 37 28 22 20 18 19 20 16 13 12 12 13 15 16 18 20 24 31 35 38 38 37 35
13 16 17 12 10 13 12 16 22 24 28 27 25 29 29 31 37 45 54 50 50 67 73 75 73 38 16 29 29 24 31 37 44 44 38 36 41 54 68 78 87 89 77 68 74 88 85 61 41 35 34 37 38 41 43 47 53 57 57 55 52 50 48 40 31 25 22 20 21 21 17 13 12 12 13 15 16 17 18 21 26 32 37 39 39 37
14 16 16 12 10 11 13 18 22 21 21 20 20 22 24 30 35 44 55 50 48 59 59 68 77 41 14 26 29 24 29 36 44 45 37 34 38 50 66 79 88 88 76 65 71 85 80 57 41 35 34 36 38 41 44 46 51 53 51 50 49 51 51 43 34 28 23 22 23 22 18 13 12 12 12 14 16 17 18 19 22 28 35 39 40 39
14 17 17 13 9 9 14 20 21 19 18 18 19 20 24 29 32 38 47 48 51 52 50 75 86 41 12 25 27 22 28 37 45 46 37 34 36 46 63 77 86 86 74 62 66 81 77 55 40 34 33 36 38 40 42 44 47 47 46 46 46 51 53 46 38 32 26 24 24 23 19 14 12 12 11 13 15 16 18 18 20 25 31 37 41 40
14 16 17 17 17 16 19 22 20 18 18 17 17 19 22 26 30 38 45 53 57 46 44 72 77 35 14 24 22 20 32 38 43 42 35 33 35 42 56 72 81 83 73 59 62 78 76 54 39 34 33 35 37 38 39 41 43 43 44 44 44 50 55 50 43 36 29 26 26 24 20 14 13 12 11 13 14 15 17 17 19 23 28 35 40 41
12 13 14 18 22 24 22 19 17 16 16 14 14 19 22 26 30 35 44 55 55 45 44 57 50 24 15 19 18 24 33 33 31 31 29 30 34 38 50 65 73 76 72 59 59 77 76 52 38 34 32 34 35 35 36 37 38 40 42 43 41 47 55 53 47 41 32 28 28 26 21 15 13 12 11 12 13 14 16 17 18 22 27 35 40 41
11 11 11 13 16 17 15 13 13 14 14 12 13 17 21 25 29 34 45 50 44 44 44 35 27 24 17 15 19 23 25 24 22 22 24 27 31 36 47 60 68 73 73 61 60 77 75 51 37 34 32 33 34 33 33 33 34 37 41 42 41 45 53 54 49 44 35 29 29 28 22 16 13 12 11 11 12 14 14 16 18 20 26 34 40 41
11 10 11 11 11 11 10 10 12 13 13 13 13 15 18 24 29 32 37 36 36 47 43 21 18 26 18 15 20 20 21 22 20 21 25 26 30 36 44 58 69 75 75 65 63 76 73 52 38 34 32 32 32 31 32 31 32 35 37 40 41 44 52 54 50 45 37 31 31 29 22 17 14 12 11 11 13 13 14 15 17 20 26 34 41 40
12 11 11 12 10 10 10 10 10 11 13 12 11 14 18 23 25 23 24 28 36 43 33 16 18 22 16 17 19 18 23 26 21 23 26 27 32 37 44 60 74 77 77 69 63 71 72 53 38 34 33 31 30 29 30 29 30 33 35 37 40 43 50 54 50 45 39 33 31 29 23 17 14 12 12 12 13 14 14 15 16 19 27 36 41 39
14 13 13 14 12 10 10 10 10 11 12 10 10 14 19 19 19 18 19 26 32 29 19 16 20 17 15 19 18 17 23 25 22 24 26 27 33 37 45 61 75 79 78 70 61 67 71 56 38 35 33 30 28 27 27 26 26 29 30 32 37 42 49 52 49 45 40 34 32 30 24 18 15 13 12 13 14 15 15 15 15 19 27 37 42 37
14 14 14 15 14 12 10 11 12 12 12 10 10 14 16 15 17 19 18 20 24 20 16 19 21 15 14 18 18 18 22 23 22 22 23 28 32 36 43 55 70 79 76 67 59 63 71 59 40 35 33 29 26 25 24 24 22 23 25 26 31 37 43 47 47 45 41 36 34 31 25 19 16 13 13 14 15 16 16 15 15 18 26 38 42 35
14 14 13 15 18 14 11 13 15 13 11 10 10 13 14 15 19 20 17 15 17 17 17 20 20 15 15 19 18 17 20 23 22 19 22 27 30 33 37 45 63 74 68 61 56 58 70 64 43 35 35 29 25 24 23 20 18 19 22 23 26 31 36 41 43 43 40 37 36 33 26 21 17 13 13 15 15 16 16 15 16 18 27 39 43 32
13 14 14 17 20 15 12 17 17 13 12 11 11 14 15 16 20 19 15 13 14 17 19 19 17 15 17 20 20 17 17 20 19 18 22 25 26 29 33 39 54 63 59 56 53 55 68 67 46 37 38 31 25 22 20 18 15 17 20 21 23 27 31 36 39 40 39 38 37 34 28 22 18 15 14 15 15 16 17 16 16 19 28 41 41 27
14 15 16 18 20 16 14 18 18 15 14 12 12 14 15 16 19 18 14 12 13 17 18 16 15 16 18 20 21 19 17 16 17 19 23 25 23 25 29 33 45 53 53 52 51 51 64 68 51 39 40 35 26 21 18 14 13 15 17 18 19 23 26 31 35 38 38 38 38 35 30 24 19 16 15 16 15 16 17 17 17 19 31 44 38 21
15 17 17 18 19 17 16 20 22 19 14 11 12 15 15 16 18 17 13 10 11 16 17 14 15 17 17 19 22 21 18 15 16 19 23 25 21 23 27 29 36 46 49 49 48 46 58 68 55 41 41 39 28 21 15 11 12 14 15 16 17 19 23 27 32 36 37 39 39 35 31 26 21 18 16 16 15 16 17 18 16 19 34 45 33 17
16 18 18 19 20 20 21 25 26 20 12 9 13 17 18 18 17 17 15 9 10 16 17 14 15 16 16 18 20 21 18 15 16 20 23 22 19 22 26 26 30 40 44 45 45 43 53 67 59 43 43 42 31 22 14 9 12 14 13 14 16 18 21 24 30 36 37 39 39 36 32 27 22 19 17 16 16 16 18 19 16 20 38 43 28 14
16 18 19 21 22 22 25 24 20 17 12 10 14 18 18 16 15 17 17 12 10 15 16 14 15 16 16 18 19 20 19 15 15 19 20 18 17 19 22 22 24 31 37 41 43 42 50 66 63 46 45 46 36 24 14 9 12 13 11 13 14 16 19 23 28 35 37 39 40 36 33 29 23 21 18 16 16 16 18 20 15 22 41 41 22 13
16 17 18 23 23 23 27 28 25 24 17 11 14 16 15 14 14 15 18 14 10 13 15 15 16 16 16 19 20 20 20 17 15 17 18 17 16 17 18 19 19 24 32 39 43 42 48 65 66 51 48 51 42 27 16 10 11 11 9 11 13 15 18 21 27 34 36 38 40 37 34 30 25 22 19 16 16 16 19 20 15 24 43 37 17 13
16 16 17 23 24 23 27 31 32 28 17 10 13 15 14 14 13 16 22 18 10 10 15 16 18 18 18 21 21 20 21 20 16 16 17 16 15 15 16 16 16 21 30 38 43 42 46 63 70 56 52 56 48 32 19 11 10 10 8 9 13 15 17 21 27 33 36 38 39 37 34 30 25 23 20 17 16 17 20 19 15 27 44 33 14 13
16 16 17 21 23 24 29 33 31 22 13 10 13 14 14 14 14 22 30 22 9 10 16 18 19 19 19 21 22 20 22 21 17 17 17 15 15 14 14 14 14 19 28 37 43 42 43 60 72 61 55 60 54 38 23 14 10 9 7 9 13 15 17 22 27 33 36 38 39 37 34 30 26 24 21 19 17 17 21 18 15 30 44 29 12 14
17 16 17 20 23 24 30 35 30 18 11 11 13 13 14 15 18 24 27 18 10 13 18 19 19 18 18 20 21 19 19 19 18 17 16 15 15 13 13 13 13 17 26 36 44 44 44 58 71 65 58 62 60 44 29 17 12 10 7 8 13 15 17 22 28 33 36 38 38 37 34 29 27 24 22 20 17 18 21 17 14 32 44 26 10 14
18 18 17 20 23 24 28 36 34 21 11 11 13 13 15 17 18 19 17 13 13 16 18 17 17 17 18 19 18 17 17 16 17 17 16 15 14 13 13 12 12 16 24 33 42 46 45 55 70 69 61 64 63 51 35 22 15 12 9 8 12 16 18 22 28 32 36 38 37 36 34 29 26 25 22 20 18 19 22 16 15 33 42 23 9 13
19 18 17 18 20 23 29 37 35 22 12 11 13 14 13 14 14 14 15 14 14 16 18 16 14 17 19 17 15 16 16 15 16 17 15 15 14 13 12 12 12 15 21 29 40 46 47 52 66 71 66 66 66 56 41 28 19 15 11 8 11 16 18 22 27 31 35 38 37 36 34 30 27 25 22 20 18 20 21 15 16 35 41 21 9 13
18 17 16 16 17 20 24 26 21 14 9 11 14 12 11 11 13 15 18 16 13 14 17 15 13 16 18 16 14 15 15 16 16 16 15 15 14 13 12 11 11 13 18 26 35 44 48 51 62 72 71 69 69 62 47 34 25 19 14 9 11 15 18 21 26 30 34 37 37 37 34 30 28 25 22 21 19 20 21 15 17 37 40 18 8 12
16 13 14 15 15 15 16 13 10 9 10 12 13 11 10 12 14 17 20 18 15 14 15 14 14 15 16 15 15 15 15 16 16 16 15 14 14 13 12 11 11 12 15 21 29 40 49 51 58 71 76 75 73 67 53 40 30 25 19 13 11 14 17 21 25 28 32 35 36 36 34 30 28 25 22 21 19 20 20 14 18 38 38 16 7 11
13 12 14 15 14 13 12 9 9 10 10 11 12 11 12 14 15 17 18 17 15 14 14 15 14 14 14 15 15 15 15 16 16 16 15 15 14 14 13 11 11 11 13 17 24 36 48 52 57 68 79 82 80 72 59 45 35 30 24 17 13 14 17 20 24 27 30 33 35 36 34 30 28 25 23 22 20 20 19 14 19 38 37 15 7 10
12 12 14 14 14 15 13 9 8 10 11 11 12 11 13 15 16 16 17 16 15 14 14 14 14 13 14 14 14 15 15 16 16 16 16 15 15 14 13 12 11 10 11 15 20 31 45 54 58 67 80 88 87 79 66 51 40 35 30 23 16 16 17 20 24 27 30 31 33 35 34 31 28 26 23 22 20 21 19 13 21 39 35 14 6 9
12 12 13 12 12 13 12 8 9 10 11 11 11 11 14 16 14 14 15 15 14 14 13 14 14 13 13 14 14 15 15 16 17 17 16 16 16 15 14 13 12 10 10 13 18 28 43 54 60 67 80 91 94 88 74 58 46 40 36 29 20 17 19 21 23 26 29 30 31 32 32 30 29 26 23 22 20 20 19 14 22 39 35 14 6 9
12 11 11 11 11 10 9 9 10 11 11 10 10 11 14 16 15 14 14 14 14 13 13 13 13 13 14 14 14 15 16 16 17 17 17 17 16 16 15 14 12 11 10 13 17 25 39 54 63 69 78 90 98 96 84 68 54 45 41 35 25 20 21 22 23 26 29 29 29 29 28 28 27 25 24 22 19 19 17 14 23 38 34 14 6 8
11 10 9 11 11 10 9 10 12 14 12 10 10 11 13 16 17 14 13 14 14 13 13 13 13 13 14 15 15 15 16 17 17 17 17 17 17 16 16 14 13 12 11 13 18 24 36 52 66 73 79 85 94 100 95 80 63 51 46 41 30 23 23 25 24 27 29 29 28 27 26 25 25 24 23 23 20 19 17 14 23 38 33 14 6 9
10 9 10 11 10 10 10 10 12 15 14 12 12 11 12 15 17 14 13 14 14 14 14 14 14 14 14 15 16 17 16 17 18 18 18 18 18 17 16 15 14 13 12 14 19 25 35 49 64 76 83 85 89 97 100 90 74 60 51 45 36 27 25 27 27 28 30 29 28 26 24 23 23 22 22 23 21 19 17 14 23 38 33 14 6 8
Wind_Speed
15 16 18 16 13 12 12 12 11 10 10 10 10 9 9 9 10 11 12 13 13 13 12 13 16 17 19 21 22 20 19 19 19 21 23 24 28 32 36 44 50 51 50 50 51 49 49 50 50 48 47 47 46 47 46 46 45 45 45 44 43 43 42 41 40 39 38 37 37 37 38 39 40 40 39 38 36 35 34 34 34 34 34 33 33 33
17 19 22 18 14 13 11 10 10 9 9 8 8 8 9 8 8 10 12 12 14 14 13 17 18 15 16 19 20 20 19 19 20 22 24 25 28 32 36 45 49 49 48 49 49 47 48 51 51 50 49 48 48 48 47 46 45 44 44 44 43 43 42 41 40 38 38 37 38 38 39 39 39 39 39 39 37 35 33 32 32 33 34 35 34 34
20 23 22 19 18 17 12 9 9 9 9 8 8 7 7 7 7 8 11 12 14 14 15 20 17 13 15 18 20 21 22 22 22 25 25 26 29 32 37 45 48 46 47 48 47 46 49 51 52 51 50 49 49 48 46 45 44 43 44 44 43 42 41 40 38 37 37 38 39 39 40 40 39 39 39 38 37 35 34 33 32 32 32 33 35 35
23 23 21 20 21 18 13 11 10 9 8 7 8 7 7 8 8 9 11 12 13 13 17 19 15 14 17 20 21 23 24 24 24 26 26 26 29 31 38 45 46 46 46 46 45 46 49 51 53 53 51 50 49 47 45 44 44 44 44 44 43 42 40 39 37 37 37 37 39 40 40 40 40 39 39 38 36 35 34 34 34 34 34 34 34 35
24 22 21 22 20 16 14 14 13 10 10 9 9 7 7 7 8 9 11 13 13 12 15 18 15 17 21 22 24 24 26 26 25 26 26 27 29 31 39 45 45 45 45 45 45 46 49 51 53 54 53 51 49 46 45 44 44 44 44 44 43 41 39 38 37 36 37 37 38 39 40 40 40 40 40 39 38 37 36 35 35 36 37 37 37 36
24 21 21 22 20 17 15 16 16 13 11 11 10 8 7 7 7 10 11 12 13 11 14 17 13 14 20 23 24 26 26 26 26 26 26 27 28 32 40 43 42 43 45 45 45 46 49 50 53 54 53 51 48 46 45 44 43 43 44 43 42 40 39 38 37 37 37 38 39 40 40 40 40 41 41 42 41 40 39 37 36 37 37 38 38 38
21 20 20 20 19 17 15 17 19 16 14 14 11 9 8 8 8 9 10 11 12 11 14 15 9 9 17 22 23 26 27 26 26 26 27 27 27 33 40 41 41 42 44 45 46 46 49 50 52 54 54 51 48 47 45 43 42 42 43 43 41 40 39 37 37 37 37 38 39 40 41 41 41 42 42 42 42 41 39 38 37 37 37 38 39 39
18 17 16 17 17 16 18 20 20 18 16 14 11 8 8 9 8 7 8 9 10 10 10 11 12 12 14 19 23 25 26 26 26 26 26 26 28 35 39 39 39 41 44 46 46 47 49 50 51 54 54 51 48 47 44 43 42 42 43 42 41 39 38 37 36 37 37 38 39 40 41 41 42 42 42 42 41 40 38 37 37 37 38 39 39 40
15 14 15 16 16 18 22 22 19 18 17 16 11 7 8 9 7 6 7 7 7 9 7 8 12 10 12 17 21 23 27 26 24 25 24 24 31 37 38 38 39 41 44 47 47 48 50 49 50 53 54 51 48 46 44 43 42 42 42 42 40 38 37 36 36 36 37 38 39 40 41 41 42 43 42 42 41 40 38 37 36 37 38 39 39 40
13 13 15 15 16 18 20 20 19 18 18 18 12 5 5 7 7 6 5 5 6 7 7 8 10 7 10 19 21 22 28 27 24 23 22 26 35 37 37 38 40 42 45 47 48 49 50 48 49 53 55 51 47 45 43 43 42 41 41 41 40 38 36 36 36 36 37 38 39 40 41 41 42 43 43 43 42 41 39 38 37 37 38 40 40 41
11 12 13 15 16 16 16 17 19 19 18 18 15 5 1 4 7 6 5 4 3 4 6 9 13 9 8 17 21 22 26 27 24 22 23 31 38 38 38 39 41 43 46 48 49 49 49 48 48 53 54 50 47 44 42 42 41 40 40 40 39 37 36 36 35 36 36 37 39 40 41 42 42 44 44 45 44 43 42 41 40 40 40 41 42 43
10 10 11 12 13 14 14 13 15 18 17 16 16 8 1 2 4 5 5 4 1 3 6 10 17 12 8 14 20 21 24 25 23 23 27 36 40 40 40 40 41 44 46 48 49 49 49 46 47 52 53 49 46 43 41 41 40 40 40 39 38 36 35 35 35 35 36 37 38 39 40 41 43 44 44 45 45 45 44 43 43 42 42 42 43 44
7 9 10 10 10 12 12 12 13 15 16 14 15 12 4 2 4 4 3 2 2 4 8 14 16 11 10 16 20 22 26 24 23 25 32 39 42 42 42 41 42 44 45 47 48 48 48 46 47 51 52 48 45 42 41 40 39 39 39 39 37 36 35 35 34 35 36 36 38 39 40 41 42 43 44 45 45 45 45 44 44 43 43 44 44 45
5 7 9 8 9 10 11 13 12 12 15 16 17 16 9 2 3 3 3 3 4 8 13 16 11 9 14 18 20 26 30 25 25 29 35 40 42 43 43 42 43 45 45 47 48 48 47 46 48 51 50 47 44 42 40 39 39 38 38 38 36 36 35 34 34 34 35 36 37 39 40 41 42 43 44 45 45 45 45 44 43 43 44 44 45 46
4 4 8 8 8 9 9 12 13 11 13 16 16 15 10 6 4 1 3 2 5 13 17 10 5 10 18 18 20 27 31 28 29 33 37 41 43 43 43 42 44 45 46 47 47 47 46 46 47 49 48 46 43 41 40 38 38 38 38 37 36 35 34 33 34 34 34 35 37 38 39 40 42 42 43 44 45 45 45 44 43 43 43 44 45 46
6 5 8 8 7 9 8 9 11 10 10 14 15 12 9 6 5 3 4 6 10 13 12 7 9 19 21 18 21 28 31 32 32 35 39 41 42 43 43 43 44 45 46 47 46 46 45 45 47 48 47 45 42 40 39 38 38 37 37 36 35 35 34 33 33 34 34 35 36 38 39 40 41 42 43 44 45 46 45 45 43 43 43 44 45 47
9 6 7 9 8 8 8 8 9 10 9 11 13 13 10 5 6 6 4 7 7 5 6 9 18 27 23 18 25 29 32 34 34 36 40 41 42 43 43 43 44 44 45 46 46 45 44 45 46 46 45 44 42 40 39 38 38 37 36 36 35 34 33 33 33 34 34 35 36 37 38 39 40 41 43 44 45 46 46 45 44 43 43 44 46 47
12 7 6 11 11 9 8 8 8 9 10 10 11 13 12 7 6 7 3 4 2 0 7 12 18 27 22 17 26 31 33 36 35 38 41 42 43 43 42 43 43 44 46 46 45 44 44 44 45 45 44 43 41 40 39 39 38 37 36 36 35 34 33 32 33 33 34 34 36 37 38 39 40 41 42 44 45 46 46 46 44 44 44 44 46 47
15 8 5 12 14 10 8 7 8 9 9 10 11 12 11 6 5 7 4 3 2 1 7 12 16 22 20 19 28 33 34 37 37 39 42 42 43 43 43 43 43 44 46 45 44 43 43 43 43 43 43 42 40 39 39 39 38 37 36 35 35 34 33 32 32 33 33 34 35 37 38 38 39 40 41 43 45 46 47 47 46 45 44 45 46 47
16 9 5 12 17 13 9 8 8 10 10 11 12 13 12 7 6 9 6 4 2 1 4 9 15 19 20 21 28 33 35 37 37 40 43 42 42 43 42 43 43 45 46 45 44 42 41 42 42 42 42 41 40 39 39 38 38 37 36 35 35 34 33 32 32 32 33 34 35 36 37 38 38 39 41 42 44 45 47 47 47 46 46 46 47 48
16 11 9 15 19 14 11 9 9 11 11 12 14 14 13 11 9 10 10 8 5 3 2 2 10 21 24 22 27 34 36 36 36 39 43 43 42 42 42 43 43 44 45 45 43 41 40 40 41 41 41 40 39 38 38 38 37 36 36 35 34 33 32 32 32 32 32 34 35 36 37 37 38 39 40 42 44 45 46 47 48 48 47 47 47 48
16 14 14 19 20 14 11 9 9 10 10 13 15 15 15 13 11 8 6 8 8 7 5 2 9 25 28 23 30 37 36 35 35 37 42 43 42 42 41 42 43 44 45 44 43 40 39 39 40 40 40 39 38 38 37 37 36 36 35 34 34 33 32 32 31 32 32 33 35 36 36 36 37 38 40 41 43 45 46 47 48 48 48 48 48 49
17 14 15 19 19 13 9 8 8 10 13 16 17 17 17 15 13 8 4 8 9 11 12 6 9 24 32 28 35 40 36 34 34 36 41 43 41 41 41 42 43 44 45 44 43 40 38 39 39 40 39 38 37 37 36 36 35 35 35 34 33 32 31 31 31 31 32 33 35 36 36 36 37 37 39 41 43 45 46 47 48 49 49 49 49 49
16 12 16 21 18 12 8 7 8 12 16 20 20 20 20 18 17 12 11 13 12 15 15 5 8 24 36 36 39 40 35 33 31 34 40 42 42 42 41 42 43 44 45 44 42 40 38 38 39 39 39 37 36 36 36 36 36 35 35 34 33 32 31 31 31 31 32 33 35 36 36 36 36 37 39 41 43 44 46 47 48 49 50 50 50 50
14 13 18 19 15 12 9 8 11 16 20 23 24 22 21 20 18 15 15 14 11 15 14 6 10 30 41 40 40 37 32 32 32 34 39 42 43 42 41 42 43 44 45 45 43 40 37 37 38 39 38 36 36 36 36 36 36 36 35 34 33 32 31 31 31 31 32 33 34 36 36 36 36 37 39 41 43 44 46 47 48 49 50 50 50 51
16 17 18 13 7 6 8 12 18 23 24 25 26 24 21 21 19 17 15 13 12 15 15 13 20 38 43 37 36 33 30 33 35 37 40 41 42 42 42 43 44 44 45 44 43 40 37 37 38 38 37 36 35 35 36 36 35 35 35 34 33 32 31 31 31 31 32 33 34 35 36 36 37 37 39 41 43 45 46 47 48 50 51 51 51 51
18 18 17 16 14 12 15 20 21 22 24 25 27 26 23 21 21 20 17 17 16 18 22 25 30 39 40 35 33 32 31 35 38 39 40 40 41 42 42 43 43 44 44 44 42 39 37 37 38 37 36 35 35 35 36 36 35 35 35 34 33 32 31 31 31 32 32 32 34 35 36 36 37 38 40 42 44 45 46 47 48 50 51 52 52 52
20 20 17 17 19 20 22 23 21 21 24 27 28 26 22 18 18 20 20 20 18 17 24 30 32 34 37 35 32 33 33 35 38 39 40 40 40 41 42 42 42 43 43 44 42 39 37 37 37 37 35 35 35 35 35 36 35 35 35 34 33 31 30 30 31 32 32 32 33 35 36 36 37 38 39 42 44 46 47 48 49 51 52 52 53 52
21 21 18 17 19 21 21 20 20 23 26 29 28 22 17 14 16 20 21 21 18 19 24 31 33 34 34 33 33 34 33 34 38 39 39 39 39 40 41 40 40 42 43 43 42 40 37 36 36 36 35 34 35 35 35 36 35 35 34 33 32 31 30 30 31 32 32 32 33 34 35 36 37 38 39 41 44 46 47 48 50 51 52 52 53 53
20 21 20 20 22 21 17 16 20 24 27 28 22 15 15 15 16 20 20 17 17 23 28 32 34 35 31 31 35 36 33 35 38 38 38 38 37 39 39 39 40 41 42 42 43 41 38 36 36 36 35 35 35 35 36 36 35 35 34 33 32 30 30 30 31 32 32 32 33 34 35 36 37 37 39 41 44 46 48 49 50 51 52 52 52 52
20 21 21 23 27 24 16 15 18 22 26 24 15 12 15 17 16 15 15 16 19 25 30 31 35 35 32 33 36 35 35 37 37 37 37 36 36 38 38 39 40 40 42 42 43 42 38 35 35 36 35 35 36 36 36 36 36 35 34 32 31 30 29 30 31 32 32 33 33 34 35 36 37 37 39 41 44 46 48 50 51 52 52 52 52 51
19 20 22 23 28 28 22 20 22 23 21 17 13 13 15 15 13 11 15 22 24 26 29 31 33 34 33 36 36 34 35 37 36 37 37 35 36 38 38 40 40 40 41 42 42 42 39 36 35 36 35 36 36 36 36 36 36 35 34 32 30 29 29 30 30 32 33 33 33 34 35 35 36 37 39 41 44 46 49 51 51 52 53 53 52 51
17 19 21 21 25 29 26 25 28 23 14 12 14 14 14 15 13 13 20 27 26 26 29 30 31 33 34 36 36 35 34 36 36 36 35 36 37 37 38 40 40 40 41 42 43 43 40 36 35 35 36 36 36 36 36 37 37 36 33 31 30 29 29 30 30 31 32 33 33 34 35 35 36 37 38 41 44 47 49 51 52 53 53 53 52 51
17 17 19 19 23 29 30 31 28 15 7 15 18 13 13 16 15 18 25 28 28 27 27 28 31 33 34 35 35 35 35 35 36 34 33 36 38 38 39 39 40 41 41 42 43 43 41 37 34 34 35 36 36 36 36 37 37 36 33 30 29 29 29 30 31 31 32 33 33 34 35 35 36 37 39 41 44 47 50 52 52 53 54 53 52 51
17 16 17 18 23 28 32 29 17 6 12 21 17 11 14 17 18 23 27 27 28 26 24 28 33 34 34 34 34 35 35 34 34 33 32 35 37 38 38 39 40 41 41 42 43 43 41 38 34 34 35 35 36 36 36 37 38 36 32 30 29 29 30 30 30 31 32 32 33 34 34 35 36 37 39 41 44 47 50 52 53 53 54 53 52 51
18 16 17 20 22 24 25 18 10 15 26 24 13 12 16 18 21 27 29 28 26 21 22 30 36 35 34 34 34 34 34 34 33 31 32 35 37 38 38 39 40 41 42 42 43 43 42 38 34 33 34 35 35 36 36 37 38 36 32 29 28 29 29 30 30 31 32 32 33 34 34 35 36 37 39 41 44 47 49 52 53 53 54 53 52 50
18 18 20 20 18 18 21 22 23 26 27 21 15 16 18 20 24 28 31 29 24 19 26 34 36 36 35 34 35 34 34 35 33 31 34 37 38 38 39 40 41 42 42 42 42 42 41 38 34 33 33 34 34 35 36 37 37 36 31 28 28 28 29 30 30 31 31 32 33 34 35 35 36 37 39 41 43 46 49 51 52 53 53 52 50 50
18 21 22 19 18 19 21 22 20 16 16 18 18 17 19 23 25 27 33 32 26 25 34 37 37 37 36 35 36 35 35 36 34 33 36 38 39 39 40 40 41 42 42 42 41 42 41 38 34 33 33 34 34 34 35 36 37 36 31 27 27 28 29 30 30 30 31 32 33 34 34 36 36 37 39 41 43 46 48 50 52 52 53 51 49 48
19 23 24 22 21 21 19 15 8 9 15 20 17 18 22 25 27 29 31 31 31 33 39 40 38 38 37 36 36 35 35 36 35 35 37 38 39 40 40 40 41 41 42 42 41 41 41 38 35 32 33 33 33 33 34 35 37 36 31 27 27 27 28 29 29 30 31 32 33 33 34 36 37 37 38 40 43 46 48 50 51 51 51 50 48 46
21 23 25 25 23 21 21 17 14 17 21 18 16 21 26 27 29 25 21 26 36 39 39 40 40 38 37 37 37 35 34 34 35 35 36 37 38 39 39 40 40 41 41 41 41 41 40 38 35 32 33 33 32 32 33 34 36 36 31 27 26 27 28 29 29 30 31 31 33 33 34 35 37 37 38 40 42 45 48 50 51 51 51 50 47 45
23 22 24 25 23 22 21 20 21 25 22 18 22 28 28 28 28 23 21 31 40 40 39 40 39 38 37 37 37 36 33 31 32 33 34 35 37 38 39 39 40 40 40 41 41 40 39 38 36 33 32 33 32 31 32 33 35 36 32 27 26 27 27 28 29 29 30 31 32 33 34 35 36 37 38 39 42 44 47 49 50 50 50 49 47 44
20 20 23 23 20 20 21 20 21 24 21 22 29 32 29 28 29 28 32 38 39 39 40 39 36 35 35 35 35 34 32 30 30 31 32 34 35 37 38 39 39 39 40 40 41 40 39 38 36 33 32 33 32 30 30 32 34 35 32 27 26 27 27 28 29 29 30 31 31 32 33 34 36 37 38 39 41 43 46 48 50 50 50 48 46 44
19 18 22 23 20 19 18 15 13 18 24 29 32 30 29 32 33 33 36 37 37 39 39 37 34 32 33 34 33 31 30 29 29 30 31 32 34 36 37 38 39 39 39 39 40 40 39 38 36 34 33 33 31 30 29 31 33 35 33 29 26 26 27 28 29 29 29 30 31 32 32 33 35 36 37 39 41 43 45 47 48 49 49 48 46 43
19 20 23 25 23 21 21 20 18 23 31 32 29 28 32 34 34 34 36 38 40 39 37 37 35 32 32 33 31 29 29 28 28 29 30 31 33 35 37 38 38 38 38 39 40 40 39 38 36 34 33 33 32 29 29 30 32 33 33 30 26 26 27 28 28 29 29 29 30 31 32 32 33 35 36 38 40 42 45 47 47 49 49 48 47 44
21 25 28 29 29 29 31 32 31 31 33 32 30 31 33 33 32 33 35 37 39 39 37 37 36 32 32 32 30 28 27 28 29 29 29 31 33 34 36 38 38 38 39 39 40 40 39 38 36 35 34 33 32 30 28 29 30 32 33 30 27 26 27 28 28 29 29 29 29 30 31 32 33 34 35 37 39 42 44 45 47 48 49 48 47 45
26 30 33 34 33 34 35 35 35 34 34 33 32 32 32 32 31 31 34 36 37 37 36 34 34 34 32 30 29 28 26 27 29 29 29 31 33 33 35 38 38 39 39 39 40 40 39 38 37 35 34 34 32 30 28 28 29 31 32 30 27 26 27 28 28 29 29 29 29 29 29 30 32 34 35 36 38 41 43 45 46 47 48 48 47 46
31 32 34 36 36 35 34 35 36 37 36 35 34 32 31 31 31 32 33 35 36 35 34 32 33 33 31 29 28 27 26 28 29 29 30 31 32 33 35 37 38 40 40 40 40 39 39 38 37 35 35 35 34 31 29 27 28 30 31 30 27 26 27 28 28 29 29 28 28 28 28 29 30 33 35 36 37 39 41 43 44 46 47 48 47 45
33 34 36 37 37 37 39 39 37 35 35 35 33 32 31 31 32 33 34 35 35 35 34 32 32 33 31 29 27 27 27 28 29 31 32 32 32 34 35 37 39 40 40 40 40 39 38 38 37 36 36 36 35 33 30 28 28 29 30 29 27 25 26 27 28 29 29 28 28 28 28 28 29 31 33 36 38 39 40 41 43 45 47 47 46 44
34 37 38 36 36 39 43 41 37 36 37 35 30 29 31 33 34 34 35 34 34 34 34 34 32 31 30 28 26 27 29 29 29 32 33 33 33 35 35 37 38 39 40 40 39 39 38 38 37 36 36 36 36 35 32 29 27 28 29 29 27 25 25 26 28 29 29 28 28 28 28 28 28 29 31 35 38 40 40 40 42 44 46 47 46 45
36 38 37 35 37 41 42 39 37 39 41 36 29 27 30 33 35 37 36 35 33 33 34 34 31 28 27 26 25 27 29 30 31 32 34 34 34 35 36 37 37 38 39 40 39 39 38 37 37 37 36 36 37 37 35 31 28 28 29 28 26 25 24 25 27 28 28 28 27 27 27 28 28 29 30 32 36 39 42 42 42 43 45 46 46 44
39 40 39 38 41 42 40 38 37 39 40 36 30 28 31 34 37 38 37 36 35 33 32 32 30 27 25 23 23 26 30 32 32 33 34 34 34 35 36 36 36 37 38 38 39 39 38 37 37 37 36 37 37 37 37 34 30 28 28 28 26 24 23 24 26 27 28 28 27 27 27 27 28 28 29 30 32 36 40 42 43 43 44 45 45 44
Wind_Direction
77 75 68 63 64 64 60 57 54 55 55 52 51 44 37 31 33 34 29 21 8 1 356 345 345 346 349 355 354 349 342 334 329 329 330 327 331 336 340 349 351 348 348 348 347 347 348 348 347 347 347 345 344 344 344 344 344 343 343 341 340 340 341 341 341 340 339 339 339 339 340 339 339 339 339 338 338 336 335 333 333 333 334 335 334 333
81 70 62 59 61 59 53 48 44 45 42 38 38 38 38 34 31 27 21 14 3 360 357 350 352 353 350 352 350 348 348 345 341 340 337 332 332 333 340 347 348 347 348 347 346 347 349 350 348 348 347 345 345 345 344 343 343 343 342 341 340 341 341 341 341 340 340 339 340 342 343 342 342 341 340 339 339 338 337 335 334 333 334 334 335 336
73 62 59 58 55 55 52 47 42 38 31 18 11 12 13 13 11 10 9 4 357 356 355 354 2 8 359 356 353 352 356 352 349 347 340 334 331 331 340 346 346 348 347 345 345 347 350 351 349 348 347 346 345 344 343 342 342 343 343 342 341 340 341 341 341 341 340 340 342 344 344 344 344 343 342 341 340 339 338 338 337 336 335 335 336 336
69 62 58 56 54 53 50 53 53 42 33 22 12 6 354 352 356 358 359 357 354 355 356 356 6 18 10 5 1 359 359 356 351 348 342 334 330 332 341 344 345 347 346 344 347 349 351 351 350 349 347 346 344 343 342 341 343 344 344 342 340 340 341 341 341 341 340 341 342 344 345 345 345 344 344 343 341 340 340 340 339 339 339 339 338 337
69 63 57 56 57 54 50 52 53 43 37 31 19 12 360 352 352 352 352 352 352 356 356 354 4 20 16 9 5 3 1 358 351 347 342 333 329 334 340 342 344 346 344 346 349 350 350 350 350 349 347 345 343 342 342 342 344 345 344 342 339 340 341 340 341 340 340 340 342 344 344 344 345 345 345 344 343 343 342 341 340 340 341 341 340 339
67 62 56 54 52 49 47 48 47 41 38 34 20 7 358 354 353 351 351 350 351 355 354 355 4 16 15 11 6 4 3 358 350 345 340 333 330 334 337 339 343 344 345 348 350 350 349 349 349 348 345 344 342 342 342 342 344 344 343 341 339 339 340 340 340 340 340 339 341 343 344 344 345 346 346 346 345 344 343 342 342 341 341 340 340 340
62 60 57 54 50 48 48 47 44 37 36 33 20 5 0 2 2 355 352 352 354 357 354 355 354 341 358 9 5 3 3 357 350 344 338 335 331 333 335 339 343 345 348 350 349 349 349 348 348 347 344 343 342 342 342 343 344 344 342 340 339 339 340 340 340 340 339 339 341 344 345 346 346 347 348 347 346 345 343 342 342 342 341 341 340 340
65 65 63 58 55 53 52 47 40 34 33 30 21 17 15 12 13 6 0 359 356 359 351 348 343 315 326 359 0 357 360 355 350 344 338 336 332 331 336 341 345 348 350 351 349 349 348 347 347 345 343 343 343 342 341 343 344 344 342 340 339 339 339 340 340 339 339 340 342 344 345 346 347 349 349 348 347 345 344 342 341 342 342 342 341 340
72 69 67 61 57 53 50 45 38 35 32 26 25 36 35 29 32 24 13 13 5 6 354 337 344 314 304 349 358 350 353 353 348 344 340 334 330 332 338 344 348 351 352 353 351 349 347 346 345 343 343 343 342 341 341 343 345 343 341 339 338 338 338 340 340 339 339 340 342 344 345 346 347 349 349 348 347 346 344 342 342 342 342 342 342 341
71 63 60 56 52 51 48 43 39 37 32 26 25 38 54 48 47 47 32 22 16 4 348 336 348 329 312 346 356 347 348 348 342 342 338 332 334 337 340 345 350 352 353 354 352 349 347 345 343 342 343 343 341 340 342 344 344 343 341 339 337 337 339 340 339 339 339 340 342 344 345 346 347 348 349 348 348 347 346 344 343 343 343 343 342 342
63 58 54 50 47 47 46 44 39 37 34 27 22 17 57 41 36 45 29 16 23 341 341 342 342 332 317 343 350 345 344 341 336 336 333 334 340 343 344 345 350 352 353 354 351 349 347 343 341 341 342 342 340 340 342 344 343 342 340 338 337 337 339 340 339 338 339 340 342 344 345 346 347 348 349 349 348 348 347 345 344 344 344 344 343 343
53 50 48 46 43 41 40 39 38 37 35 29 26 25 310 302 3 13 2 18 56 317 337 340 333 320 290 327 341 342 341 337 333 333 332 337 343 345 346 348 350 352 353 352 350 348 346 342 340 340 341 340 340 341 343 344 343 342 340 338 336 338 339 340 339 338 339 340 342 343 345 346 347 348 348 349 349 348 347 346 345 344 344 344 344 343
39 40 42 41 36 37 34 31 33 34 32 29 32 40 46 318 352 350 334 343 280 289 326 331 327 307 292 322 338 344 347 342 335 335 335 340 344 345 347 350 351 352 352 350 349 347 345 341 339 339 339 339 340 341 343 344 343 342 340 338 337 338 340 340 339 339 339 340 342 344 345 346 347 348 348 349 349 349 348 347 345 344 344 344 344 344
13 25 28 28 27 28 24 24 24 20 22 23 28 38 44 45 28 344 299 310 284 299 323 323 314 302 313 332 345 348 353 350 340 340 339 341 344 344 347 351 351 352 350 348 347 346 344 340 338 337 338 339 340 341 343 344 344 342 340 338 338 339 339 340 339 339 339 340 342 344 345 345 346 347 349 349 350 350 349 348 346 344 344 344 344 344
344 354 8 11 14 14 14 19 17 9 14 17 21 31 37 54 73 310 278 276 284 305 318 309 285 315 319 330 347 351 355 354 346 344 342 342 343 343 347 350 350 350 348 347 346 345 342 339 336 336 337 339 340 341 344 345 344 342 340 339 339 339 340 340 339 339 339 340 342 344 344 345 346 347 349 350 350 350 350 348 347 345 344 344 344 344
334 323 352 356 354 357 358 5 9 9 9 10 14 20 23 41 46 348 279 272 287 305 316 292 299 323 322 328 349 354 354 354 350 344 341 340 342 343 347 350 350 348 346 345 345 343 340 337 335 336 337 339 341 342 344 345 344 343 340 340 340 340 340 340 339 339 339 341 343 344 344 344 346 347 348 350 351 351 351 349 347 346 344 344 344 344
341 325 348 352 343 340 339 343 356 3 3 4 9 6 360 1 1 354 294 279 294 304 308 296 312 329 335 342 352 353 352 352 349 343 339 339 341 343 346 349 349 346 344 343 343 341 339 336 335 336 337 339 341 342 344 345 345 343 341 341 342 341 340 340 339 339 340 342 343 343 344 344 345 347 348 349 351 351 351 350 348 347 345 344 344 344
346 329 345 355 345 331 327 327 337 350 354 354 358 358 355 345 337 345 314 300 360 321 291 293 308 325 332 338 346 349 349 350 346 340 338 338 340 342 346 348 347 344 342 342 342 340 338 336 336 337 338 340 341 343 345 346 345 343 342 342 342 341 341 340 339 339 340 342 343 343 343 344 345 346 347 349 351 351 351 350 349 347 346 345 345 344
352 333 339 358 350 333 319 313 322 336 341 341 342 344 348 339 313 329 328 311 355 310 295 301 309 322 328 330 341 347 347 347 343 338 337 337 340 342 345 347 346 343 342 341 341 340 337 336 337 337 339 340 341 343 345 346 345 344 343 342 343 342 341 341 340 340 341 342 343 342 343 344 344 345 347 348 350 351 351 351 350 348 347 346 345 345
353 337 318 348 348 338 321 311 313 323 327 329 328 329 334 329 298 310 306 260 264 229 292 314 313 323 339 338 338 344 346 344 340 335 336 337 339 342 343 345 344 342 341 341 341 339 337 338 338 338 339 340 341 343 345 346 346 344 343 343 344 343 341 341 341 341 342 342 342 342 342 343 344 345 346 348 349 351 351 351 350 349 348 346 346 345
349 337 318 339 347 339 325 318 309 314 320 319 322 319 317 317 304 303 294 265 255 220 193 11 298 312 341 347 337 342 345 342 338 333 335 338 339 341 342 343 343 341 341 341 340 339 338 339 339 338 340 341 341 344 345 346 346 344 344 344 344 344 342 341 341 341 342 342 342 342 342 342 343 344 346 347 349 350 351 352 351 350 348 347 346 345
343 331 321 335 344 336 324 320 306 312 319 317 320 315 308 310 303 300 291 267 254 239 245 169 272 307 340 350 335 341 344 338 335 332 334 337 339 341 341 341 341 340 340 340 340 340 340 340 340 339 341 341 341 343 345 346 346 344 345 345 345 345 343 342 342 342 343 343 342 341 341 341 342 343 345 346 348 349 350 352 351 351 349 347 346 345
336 327 321 332 342 337 328 327 316 318 322 320 320 316 310 308 297 285 255 266 270 261 266 234 250 308 341 345 331 339 342 334 332 330 332 336 338 340 341 340 340 339 340 340 340 342 342 341 341 340 341 342 341 343 344 346 346 344 345 346 346 345 344 342 343 342 343 343 342 341 340 340 342 342 344 345 347 348 350 351 351 351 350 348 347 346
335 329 323 330 341 341 328 324 318 316 320 321 323 321 315 310 304 293 270 274 280 271 270 211 225 305 334 336 329 337 338 330 328 328 332 336 338 340 341 339 339 339 339 341 342 344 343 341 342 342 342 342 341 343 345 346 346 345 346 348 347 346 344 343 343 342 343 342 341 340 339 340 341 342 343 345 346 347 349 350 351 350 349 348 347 346
334 330 326 329 341 349 339 329 325 322 322 323 324 323 319 313 308 298 281 275 272 271 272 201 241 303 326 330 329 337 335 326 327 330 334 337 338 340 340 338 339 339 339 340 342 345 344 342 343 343 342 341 341 343 346 347 347 346 347 348 348 347 345 343 343 342 342 342 340 339 339 339 340 341 343 344 345 346 348 349 350 350 349 348 347 346
327 327 328 324 325 336 320 319 325 321 318 322 324 323 320 313 305 298 283 265 262 272 266 243 273 306 324 332 333 337 333 328 331 335 337 338 338 339 339 338 338 338 338 340 343 345 344 343 344 343 341 341 341 344 347 347 347 346 347 348 348 348 345 343 343 342 342 341 340 339 338 338 339 341 343 344 345 346 347 348 349 349 349 348 348 347
321 320 323 316 308 309 313 321 325 314 309 318 324 321 319 314 305 295 274 262 274 280 276 283 297 308 322 335 337 334 333 332 334 338 340 339 338 337 338 337 336 336 337 339 344 346 345 345 344 343 341 341 342 345 347 347 347 347 347 348 348 347 346 344 342 342 341 341 339 338 338 338 339 341 343 345 345 346 346 347 348 349 349 348 348 347
316 313 314 311 310 317 323 327 325 313 308 316 323 324 324 318 304 292 279 282 291 277 281 307 316 309 318 335 335 331 334 334 334 339 340 339 338 337 336 335 334 335 337 339 344 348 347 345 344 343 341 341 343 346 348 347 347 348 348 348 348 347 345 344 343 341 340 340 339 338 338 338 339 342 344 345 346 346 346 347 348 349 350 349 348 347
313 309 309 307 308 317 323 324 324 319 314 317 323 326 323 313 303 301 301 302 293 273 289 317 319 311 322 337 333 332 335 333 334 338 338 338 338 335 334 333 333 335 337 339 345 348 347 345 344 343 342 342 343 346 348 348 347 348 348 347 347 346 345 344 343 341 340 339 339 338 338 339 339 342 344 346 346 346 346 347 348 350 350 349 348 347
309 309 312 308 308 318 324 319 323 322 315 316 324 323 313 309 307 308 311 309 295 291 307 320 315 314 330 338 331 333 335 332 334 337 337 339 336 333 333 332 333 336 337 339 345 348 347 345 344 343 342 342 344 346 348 348 348 348 348 347 347 346 345 345 343 342 340 339 339 339 339 339 340 342 344 346 347 347 347 348 349 350 350 350 349 348
307 308 313 310 309 318 328 322 323 323 314 313 321 321 314 312 309 308 313 313 306 307 317 318 310 314 332 337 331 332 334 332 334 336 339 339 335 333 334 334 334 337 337 340 345 347 347 346 344 344 343 342 344 346 348 348 348 348 348 348 347 346 346 345 343 342 341 339 339 339 339 339 340 341 344 346 347 348 348 349 350 350 350 350 350 349
307 307 313 314 309 315 327 326 327 328 315 308 320 324 317 311 305 304 315 318 316 316 319 314 307 315 330 333 330 330 331 331 333 338 341 339 335 335 336 335 335 336 338 340 344 347 347 346 345 344 343 342 344 346 348 348 348 348 348 348 348 347 347 346 344 342 341 340 340 339 339 339 340 341 344 347 347 348 349 350 351 351 351 351 351 350
308 307 314 315 307 312 324 327 328 331 322 319 328 323 317 318 308 303 315 321 323 320 315 309 311 320 328 329 327 329 330 330 334 341 342 337 336 338 337 336 336 336 339 342 344 346 347 346 345 344 343 342 343 346 348 348 348 348 348 349 349 348 347 346 345 343 342 341 340 340 339 340 340 341 344 346 348 349 350 351 352 352 351 351 351 351
311 310 314 313 308 312 322 326 328 329 320 330 330 318 317 322 313 310 319 324 327 323 315 312 319 325 327 327 327 327 328 330 335 343 342 335 337 339 337 336 336 336 340 343 344 346 347 346 345 343 343 343 343 345 347 348 348 348 348 349 349 349 348 347 346 344 342 341 340 340 340 340 340 341 344 346 348 349 351 352 352 353 352 352 352 352
315 314 314 314 310 312 321 331 337 316 315 331 331 311 315 321 316 316 321 329 334 326 315 319 327 328 327 326 326 325 326 329 335 343 341 335 337 339 337 336 337 337 341 343 344 345 346 345 344 342 343 343 343 345 347 347 348 347 348 349 349 349 348 347 346 345 343 342 341 340 340 340 340 342 344 347 349 349 351 352 353 354 353 352 353 353
317 316 315 315 313 312 317 326 322 306 320 337 343 323 322 323 324 322 321 333 343 327 314 325 331 330 328 326 325 325 325 327 334 342 340 336 339 339 336 337 338 339 341 343 343 344 345 345 343 341 342 343 343 344 346 347 347 347 347 348 348 348 348 346 346 346 343 343 341 340 340 340 341 342 344 347 349 350 352 353 353 355 355 354 353 353
317 316 315 313 310 309 307 307 309 312 323 343 348 336 330 324 326 324 318 329 345 331 320 329 330 328 329 327 324 324 324 325 333 341 339 338 340 340 337 339 340 339 341 342 342 343 344 344 342 341 342 343 343 344 345 346 347 346 346 347 347 347 347 346 346 346 344 343 342 341 341 340 341 343 345 347 349 351 352 354 354 355 356 355 354 354
313 314 313 305 300 303 300 305 315 315 323 339 340 338 334 325 325 322 313 321 340 332 323 326 327 326 329 326 323 324 323 325 332 339 339 339 340 340 339 340 340 339 340 340 341 342 344 344 342 340 340 342 342 343 344 346 346 345 344 345 346 346 347 346 346 346 345 344 343 342 341 341 341 343 346 348 349 351 353 354 355 356 357 357 356 356
310 311 308 298 294 296 290 289 287 278 307 331 340 338 334 326 323 319 310 317 332 327 320 323 324 324 326 323 321 322 323 326 332 337 337 338 339 340 339 339 339 338 338 339 340 341 343 343 342 339 338 340 341 342 344 345 346 345 343 343 345 345 345 346 346 346 346 344 343 342 342 342 342 344 346 348 350 351 354 355 356 357 358 358 358 358
308 308 303 295 293 292 283 272 268 283 307 332 340 334 333 326 321 316 307 316 325 320 316 319 320 321 322 320 318 320 321 325 330 332 334 336 338 339 339 338 338 337 337 338 339 341 342 343 341 337 336 337 339 341 343 344 345 345 342 341 343 343 344 345 345 346 346 344 343 343 343 343 343 344 346 349 350 352 354 355 357 358 358 359 360 359
307 306 300 295 296 294 279 265 275 297 317 337 335 332 332 323 314 306 303 314 317 313 313 317 319 320 320 316 314 317 319 323 327 328 331 334 336 337 338 338 338 337 337 337 338 340 342 342 341 336 333 335 338 340 342 343 344 345 341 338 340 342 343 345 345 346 346 344 343 343 343 344 344 345 347 349 350 352 354 356 357 358 359 0 1 1
304 304 299 295 297 297 284 270 279 301 325 338 333 331 328 316 307 308 311 312 311 310 314 318 319 319 316 311 311 313 316 322 325 325 328 332 334 336 336 337 337 336 336 336 337 339 341 341 340 335 332 333 336 338 340 342 343 344 342 337 338 341 342 344 345 345 345 345 343 343 344 344 345 346 347 349 351 352 354 356 358 359 359 1 2 2
300 297 295 298 300 298 288 272 275 304 325 333 331 328 320 310 309 315 315 310 307 311 315 317 318 315 310 309 309 309 314 320 321 322 326 330 332 334 335 336 337 336 336 336 337 338 339 340 339 335 331 331 333 335 338 341 343 344 342 337 336 339 341 343 345 345 345 344 343 343 343 344 345 346 347 349 351 352 354 357 358 359 360 1 3 3
296 296 295 298 300 294 284 281 295 316 325 328 328 323 315 312 315 319 317 309 307 312 315 315 314 311 307 307 306 307 313 318 318 320 324 327 331 333 334 336 337 336 336 336 336 337 338 338 338 336 331 330 331 333 336 339 342 344 342 338 335 337 340 343 344 345 345 344 343 343 343 344 345 346 348 350 351 352 354 357 358 359 0 1 3 3
300 305 299 295 297 296 293 297 310 323 326 325 324 320 315 316 319 319 315 310 308 310 314 315 313 310 307 306 305 307 312 314 316 318 321 325 329 331 332 335 337 336 336 336 336 336 336 336 337 336 333 331 330 331 333 337 340 343 343 339 334 335 339 341 343 344 344 344 344 343 343 343 344 345 349 352 352 352 354 357 358 359 0 2 3 4
308 310 301 297 301 303 303 309 318 324 324 323 321 319 317 317 317 313 309 307 307 309 314 315 313 312 310 307 304 306 309 311 314 316 319 323 326 328 331 334 336 336 336 336 335 335 335 335 336 336 335 333 331 329 330 334 338 341 342 340 335 333 337 340 342 343 344 344 343 343 343 343 343 344 347 351 353 353 354 357 359 359 0 2 3 4
311 309 300 300 303 301 303 314 322 323 323 322 319 318 317 315 313 311 309 308 308 311 315 315 312 312 311 307 304 303 305 308 312 315 317 320 323 326 329 333 335 336 336 335 335 334 334 334 335 335 335 334 332 329 329 332 335 338 341 340 336 332 335 338 340 342 343 343 343 343 343 344 343 344 346 348 351 354 355 356 358 359 0 2 4 5
308 304 299 302 304 302 306 316 323 321 318 317 317 317 316 313 311 310 311 311 311 313 314 313 311 311 310 307 302 299 302 306 310 313 316 318 321 324 328 331 334 335 335 334 334 333 333 333 333 334 334 334 332 329 327 329 332 335 338 340 336 332 333 336 339 341 342 342 342 343 343 344 344 345 346 348 350 353 355 356 358 359 1 2 4 5
301 298 300 304 305 307 310 316 323 321 314 312 315 315 313 314 312 309 309 312 313 312 312 312 311 310 309 307 301 298 300 305 308 311 314 317 320 323 326 329 332 334 334 333 333 333 333 332 332 333 333 333 332 329 326 326 329 331 334 338 337 332 331 334 337 339 341 341 342 342 343 344 345 346 347 349 350 353 355 357 358 359 1 2 3 5
298 298 303 302 300 306 311 316 323 322 314 311 313 309 307 312 312 307 307 312 313 312 311 312 312 310 308 306 301 297 300 305 308 309 312 316 319 321 324 328 331 333 333 332 332 333 332 331 331 332 332 332 332 330 327 325 325 327 331 335 336 332 329 332 335 338 339 340 341 341 343 344 345 346 348 349 350 352 354 357 358 360 1 2 3 4
299 300 303 302 303 309 313 316 321 319 312 310 308 302 302 308 308 305 306 310 310 309 309 310 311 310 308 304 298 295 299 303 305 308 311 315 318 320 322 325 329 332 332 331 331 332 332 331 331 331 331 332 332 332 329 325 322 323 327 331 334 332 328 329 333 336 337 339 339 340 342 344 344 346 348 349 350 352 353 355 357 360 1 2 3 4